* Astronomy

Members Login
Post Info TOPIC: S/2010 J 1


L

Posts: 131433
Date:
RE: S/2010 J 1
Permalink  
 


Orbital elements:
S/2010 J 1
Epoch 2011 Aug. 27.0 TT = JDT 2455800.5                 MPC
M  81.65191              (2000.0)            P               Q
n   0.49849194     Peri.  225.36119     -0.13347577     +0.97497821
a   0.1551197      Node   321.95536     +0.97120271     +0.16440111
e   0.3239935      Incl.  163.23442     +0.19735632     -0.14963207
P   1.98           H   16.5           P/d   722.18
From 145 observations 2010 Sept. 7-2011 Aug. 5

MPEC 2011 - R49

S/2010 J 1 is a natural satellite of Jupiter. It was discovered by R. Jacobson, M. Brozovic, B. Gladman, and M. Alexandersen in 2010.
Source



__________________


L

Posts: 131433
Date:
Permalink  
 

Orbital elements:
S/2010 J 1
Epoch 2011 Aug. 27.0 TT = JDT 2455800.5                 MPC
M  81.14924              (2000.0)            P               Q
n   0.49700522     Peri.  225.36709     -0.13609793     +0.97470090
a   0.1554289      Node   322.11421     +0.97091072     +0.16681433
e   0.3202199      Incl.  163.21859     +0.19700183     -0.14876535
P   1.98           H   16.6           P/d   724.34
From 126 observations 2010 Sept. 7-2011 Jan. 4

MPEC 2011 - L06



__________________
Page 1 of 1  sorted by
 
Quick Reply

Please log in to post quick replies.



Create your own FREE Forum
Report Abuse
Powered by ActiveBoard